Weather History for Hall Beach, NU

Change the Weather History Date:

Sunday, April 14, 2013

  Actual Average Record
Temperature  
Mean Temperature 5 °F -  
Max Temperature 12 °F 3 °F 73 °F (1997)
Min Temperature -5 °F -10 °F -29 °F (2003)
Degree Days  
Heating Degree Days 60    
Moisture  
Dew Point 2 °F    
Average Humidity 85    
Maximum Humidity 92    
Minimum Humidity 79    
Precipitation  
Precipitation 0.00 in - - ()
Sea Level Pressure  
Sea Level Pressure 30.42 in    
Wind  
Wind Speed 11 mph ()    
Max Wind Speed 17 mph    
Max Gust Speed 23 mph    
Visibility 12.2 miles    
Events      
Averages and records for this station are not official NWS values.
T = Trace of Precipitation, MM = Missing Value Source: Averaged Metar Reports

Daily Weather History Graph

Daily Weather History Graph

Search for Another Location

Airport:

Trip Planner

Search our weather history database for the weather conditions in past years. The results will help you decide how hot, cold, wet, or windy it might be!

Date:

Astronomy

Apr. 14, 2013 Rise Set
Actual Time 5:32 AM EDT 9:20 PM EDT
Civil Twilight 4:19 AM EDT 10:35 PM EDT
Nautical Twilight 1:57 AM EDT 12:52 AM EDT
Astronomical Twilight Sun does not rise Sun does not rise
Moon 5:56 AM EDT (4/14) 2:49 AM EDT (4/14)
Length of Visible Light 18h 15m
Length of Day
15h 48m
Waxing Crescent, 17% of the Moon is Illuminated
Apr 14
Waxing Crescent
Apr 18
First Quarter
Apr 25
Full
May 2
Last Quarter
May 9
New

Hourly Weather History & Observations

Time (EDT) Temp. Windchill Dew Point Humidity Pressure Visibility Wind Dir Wind Speed Gust Speed Precip Events Conditions
12:00 AM 12.2 °F -2.5 °F 10.4 °F 92% 30.35 in 9.0 mi WNW 12.7 mph - N/A   Overcast
12:06 AM 12.2 °F -1.8 °F 10.4 °F 92% 30.35 in 9.0 mi WNW 11.5 mph - N/A   Overcast
1:00 AM 10.4 °F -4.1 °F 6.8 °F 85% 30.35 in 9.0 mi WNW 11.5 mph - N/A   Clear
2:00 AM 10.4 °F -4.8 °F 6.8 °F 85% 30.36 in 9.0 mi WNW 12.7 mph - N/A   Clear
3:00 AM 6.8 °F -7.8 °F 5.0 °F 92% 30.37 in 9.0 mi WNW 10.4 mph - N/A   Partly Cloudy
4:00 AM 6.8 °F -7.8 °F 3.2 °F 85% 30.38 in 9.0 mi WNW 10.4 mph - N/A   Clear
5:00 AM 5.0 °F -10.8 °F 1.4 °F 85% 30.39 in 9.0 mi WNW 11.5 mph - N/A   Clear
6:00 AM 1.4 °F -14.5 °F -2.2 °F 85% 30.39 in 9.0 mi West 10.4 mph - N/A   Clear
7:00 AM -2.2 °F -18.0 °F -4.0 °F 92% 30.40 in 9.0 mi WNW 9.2 mph - N/A   Clear
8:00 AM -0.4 °F -17.6 °F -2.2 °F 92% 30.40 in 15.0 mi WNW 11.5 mph - N/A   Partly Cloudy
9:00 AM 3.2 °F -15.9 °F -0.4 °F 85% 30.41 in 15.0 mi WNW 16.1 mph - N/A   Partly Cloudy
10:00 AM 5.0 °F -10.8 °F 1.4 °F 85% 30.42 in 15.0 mi WNW 11.5 mph - N/A   Partly Cloudy
11:00 AM 6.8 °F -11.3 °F 3.2 °F 85% 30.42 in 15.0 mi WNW 16.1 mph - N/A   Clear
12:00 PM 6.8 °F -6.9 °F 3.2 °F 85% 30.43 in 15.0 mi West 9.2 mph - N/A   Clear
1:00 PM 8.6 °F -7.0 °F 3.2 °F 79% 30.43 in 15.0 mi WNW 12.7 mph - N/A   Clear
2:00 PM 8.6 °F -9.5 °F 5.0 °F 85% 30.44 in 15.0 mi NW 17.3 mph - N/A   Clear
3:00 PM 8.6 °F -7.7 °F 5.0 °F 85% 30.45 in 15.0 mi NW 13.8 mph 20.7 mph N/A   Clear
4:00 PM 8.6 °F -7.0 °F 5.0 °F 85% 30.46 in 15.0 mi NW 12.7 mph 23.0 mph N/A   Partly Cloudy
4:29 PM 10.4 °F -5.4 °F 5.0 °F 79% 30.46 in 15.0 mi West 13.8 mph - N/A   Clear
5:00 PM 8.6 °F -7.0 °F 5.0 °F 85% 30.46 in 15.0 mi NW 12.7 mph - N/A   Partly Cloudy
6:00 PM 8.6 °F -5.5 °F 3.2 °F 79% 30.47 in 15.0 mi WNW 10.4 mph 17.3 mph N/A   Partly Cloudy
7:00 PM 6.8 °F -7.8 °F 1.4 °F 79% 30.46 in 15.0 mi WNW 10.4 mph - N/A   Partly Cloudy
8:00 PM 3.2 °F -15.9 °F -0.4 °F 85% 30.46 in 15.0 mi WNW 16.1 mph - N/A   Partly Cloudy
9:00 PM 1.4 °F -17.6 °F -2.2 °F 85% 30.47 in 9.0 mi WNW 15.0 mph 20.7 mph N/A   Clear
10:00 PM -0.4 °F -8.3 °F -4.0 °F 85% 30.48 in 9.0 mi West 3.5 mph - N/A   Clear
11:00 PM -5.8 °F -24.4 °F -9.4 °F 84% 30.46 in 9.0 mi West 11.5 mph - N/A   Clear